Wetterdaten: Donnerstag, 23.07.2015
Datum Zeit Temp. A. Feuchte A. Luftdruck Regen Wind Richtung Richtung Sonnenschein ET UV Solar Taupunkt Windchill Windben Empfang
23.07.2015 00:00 24,1 C 70 % 1009,2 hPa 0,0 l/m 7,9 km/h (2 Bft) NW 316 0 min 0,000 mm 0,0 UV-I 0 W/m 18,3 C 23,7 C 11,9 km/h (2 Bft) 0,00 %
23.07.2015 00:05 23,4 C 73 % 1009,4 hPa 0,0 l/m 9,7 km/h (2 Bft) NW 317 0 min 0,000 mm 0,0 UV-I 0 W/m 18,3 C 22,5 C 15,8 km/h (3 Bft) 0,00 %
23.07.2015 00:10 22,8 C 73 % 1009,5 hPa 0,0 l/m 9,4 km/h (2 Bft) N 350 0 min 0,000 mm 0,0 UV-I 0 W/m 17,7 C 21,9 C 11,9 km/h (2 Bft) 0,00 %
23.07.2015 00:15 22,6 C 74 % 1009,4 hPa 0,0 l/m 1,8 km/h (1 Bft) N-NO 29 0 min 0,000 mm 0,0 UV-I 0 W/m 17,7 C 22,6 C 4,0 km/h (1 Bft) 0,00 %
23.07.2015 00:20 22,5 C 74 % 1009,7 hPa 0,0 l/m 1,8 km/h (1 Bft) N-NW 331 0 min 0,000 mm 0,0 UV-I 0 W/m 17,6 C 22,5 C 4,0 km/h (1 Bft) 0,00 %
23.07.2015 00:25 22,4 C 75 % 1009,7 hPa 0,0 l/m 4,3 km/h (1 Bft) O-NO 68 0 min 0,000 mm 0,0 UV-I 0 W/m 17,7 C 22,4 C 7,9 km/h (2 Bft) 0,00 %
23.07.2015 00:30 22,2 C 74 % 1009,8 hPa 0,0 l/m 1,8 km/h (1 Bft) NO 34 0 min 0,000 mm 0,0 UV-I 0 W/m 17,3 C 22,2 C 4,0 km/h (1 Bft) 0,00 %
23.07.2015 00:35 22,0 C 74 % 1009,8 hPa 0,0 l/m 0,7 km/h (0 Bft) N-NO 26 0 min 0,000 mm 0,0 UV-I 0 W/m 17,1 C 22,0 C 4,0 km/h (1 Bft) 0,00 %
23.07.2015 00:40 21,9 C 74 % 1009,8 hPa 0,0 l/m 6,5 km/h (2 Bft) W-SW 256 0 min 0,000 mm 0,0 UV-I 0 W/m 17,0 C 21,9 C 11,9 km/h (2 Bft) 0,00 %
23.07.2015 00:45 21,8 C 74 % 1009,9 hPa 0,0 l/m 1,8 km/h (1 Bft) N-NO 27 0 min 0,000 mm 0,0 UV-I 0 W/m 17,0 C 21,8 C 4,0 km/h (1 Bft) 0,00 %
23.07.2015 00:50 21,7 C 73 % 1009,5 hPa 0,0 l/m 7,9 km/h (2 Bft) W-SW 256 0 min 0,000 mm 0,0 UV-I 0 W/m 16,6 C 21,2 C 11,9 km/h (2 Bft) 0,00 %
23.07.2015 00:55 21,7 C 73 % 1009,7 hPa 0,0 l/m 0,7 km/h (0 Bft) O-NO 71 0 min 0,000 mm 0,0 UV-I 0 W/m 16,6 C 21,7 C 4,0 km/h (1 Bft) 0,00 %
23.07.2015 01:00 21,7 C 73 % 1009,6 hPa 0,0 l/m 0,0 km/h (0 Bft) NO 35 0 min 0,000 mm 0,0 UV-I 0 W/m 16,6 C 21,7 C 0,0 km/h (0 Bft) 0,00 %
23.07.2015 01:05 21,6 C 73 % 1009,9 hPa 0,0 l/m 0,4 km/h (0 Bft) O 92 0 min 0,000 mm 0,0 UV-I 0 W/m 16,5 C 21,6 C 4,0 km/h (1 Bft) 0,00 %
23.07.2015 01:10 21,6 C 73 % 1009,8 hPa 0,0 l/m 1,8 km/h (1 Bft) N-NW 347 0 min 0,000 mm 0,0 UV-I 0 W/m 16,5 C 21,6 C 4,0 km/h (1 Bft) 0,00 %
23.07.2015 01:15 21,6 C 73 % 1010,0 hPa 0,0 l/m 3,2 km/h (1 Bft) W-NW 299 0 min 0,000 mm 0,0 UV-I 0 W/m 16,5 C 21,6 C 4,0 km/h (1 Bft) 0,00 %
23.07.2015 01:20 21,6 C 74 % 1010,2 hPa 0,0 l/m 1,4 km/h (1 Bft) O 80 0 min 0,000 mm 0,0 UV-I 0 W/m 16,8 C 21,6 C 4,0 km/h (1 Bft) 0,00 %
23.07.2015 01:25 21,6 C 74 % 1010,2 hPa 0,0 l/m 1,4 km/h (1 Bft) O-NO 63 0 min 0,000 mm 0,0 UV-I 0 W/m 16,8 C 21,6 C 4,0 km/h (1 Bft) 0,00 %
23.07.2015 01:30 21,6 C 74 % 1010,3 hPa 0,0 l/m 4,3 km/h (1 Bft) N 354 0 min 0,000 mm 0,0 UV-I 0 W/m 16,8 C 21,6 C 7,9 km/h (2 Bft) 0,00 %
23.07.2015 01:35 21,5 C 74 % 1010,4 hPa 0,0 l/m 4,0 km/h (1 Bft) W-SW 255 0 min 0,000 mm 0,0 UV-I 0 W/m 16,7 C 21,5 C 7,9 km/h (2 Bft) 0,00 %
23.07.2015 01:40 21,5 C 74 % 1010,4 hPa 0,0 l/m 0,7 km/h (0 Bft) N-NW 333 0 min 0,000 mm 0,0 UV-I 0 W/m 16,7 C 21,5 C 4,0 km/h (1 Bft) 0,00 %
23.07.2015 01:45 21,6 C 74 % 1010,4 hPa 0,0 l/m 4,0 km/h (1 Bft) N 354 0 min 0,000 mm 0,0 UV-I 0 W/m 16,8 C 21,6 C 7,9 km/h (2 Bft) 0,00 %
23.07.2015 01:50 21,6 C 74 % 1010,3 hPa 0,0 l/m 1,4 km/h (1 Bft) N-NO 17 0 min 0,000 mm 0,0 UV-I 0 W/m 16,8 C 21,6 C 4,0 km/h (1 Bft) 0,00 %
23.07.2015 01:55 21,7 C 74 % 1010,7 hPa 0,0 l/m 0,0 km/h (0 Bft) N 10 0 min 0,000 mm 0,0 UV-I 0 W/m 16,9 C 21,7 C 0,0 km/h (0 Bft) 0,00 %
23.07.2015 02:00 21,7 C 73 % 1010,9 hPa 0,0 l/m 2,9 km/h (1 Bft) N-NW 338 0 min 0,000 mm 0,0 UV-I 0 W/m 16,6 C 21,7 C 7,9 km/h (2 Bft) 0,00 %
23.07.2015 02:05 21,7 C 73 % 1010,7 hPa 0,0 l/m 0,0 km/h (0 Bft) O 88 0 min 0,000 mm 0,0 UV-I 0 W/m 16,6 C 21,7 C 0,0 km/h (0 Bft) 0,00 %
23.07.2015 02:10 21,7 C 72 % 1010,7 hPa 0,0 l/m 0,4 km/h (0 Bft) N-NO 32 0 min 0,000 mm 0,0 UV-I 0 W/m 16,4 C 21,7 C 4,0 km/h (1 Bft) 0,00 %
23.07.2015 02:15 21,8 C 71 % 1010,6 hPa 0,0 l/m 0,4 km/h (0 Bft) N-NW 341 0 min 0,000 mm 0,0 UV-I 0 W/m 16,3 C 21,8 C 4,0 km/h (1 Bft) 0,00 %
23.07.2015 02:20 21,9 C 71 % 1010,6 hPa 0,0 l/m 3,2 km/h (1 Bft) N 6 0 min 0,000 mm 0,0 UV-I 0 W/m 16,4 C 21,9 C 7,9 km/h (2 Bft) 0,00 %
23.07.2015 02:25 21,9 C 71 % 1010,4 hPa 0,0 l/m 9,7 km/h (2 Bft) W 271 0 min 0,000 mm 0,0 UV-I 0 W/m 16,4 C 20,8 C 11,9 km/h (2 Bft) 0,00 %
23.07.2015 02:30 21,9 C 71 % 1010,2 hPa 0,0 l/m 5,4 km/h (1 Bft) W 270 0 min 0,000 mm 0,0 UV-I 0 W/m 16,4 C 21,9 C 7,9 km/h (2 Bft) 0,00 %
23.07.2015 02:35 21,9 C 71 % 1010,3 hPa 0,0 l/m 0,0 km/h (0 Bft) N 351 0 min 0,000 mm 0,0 UV-I 0 W/m 16,4 C 21,9 C 0,0 km/h (0 Bft) 0,00 %
23.07.2015 02:40 21,8 C 72 % 1010,6 hPa 0,0 l/m 0,0 km/h (0 Bft) O-NO 60 0 min 0,000 mm 0,0 UV-I 0 W/m 16,5 C 21,8 C 0,0 km/h (0 Bft) 0,00 %
23.07.2015 02:45 21,8 C 72 % 1010,4 hPa 0,0 l/m 0,4 km/h (0 Bft) N 351 0 min 0,000 mm 0,0 UV-I 0 W/m 16,5 C 21,8 C 4,0 km/h (1 Bft) 0,00 %
23.07.2015 02:50 21,7 C 72 % 1010,5 hPa 0,0 l/m 0,0 km/h (0 Bft) NO 35 0 min 0,000 mm 0,0 UV-I 0 W/m 16,4 C 21,7 C 0,0 km/h (0 Bft) 0,00 %
23.07.2015 02:55 21,7 C 72 % 1010,6 hPa 0,0 l/m 0,4 km/h (0 Bft) N 356 0 min 0,000 mm 0,0 UV-I 0 W/m 16,4 C 21,7 C 4,0 km/h (1 Bft) 0,00 %
23.07.2015 03:00 21,7 C 72 % 1010,5 hPa 0,0 l/m 2,2 km/h (1 Bft) W 260 0 min 0,000 mm 0,0 UV-I 0 W/m 16,4 C 21,7 C 4,0 km/h (1 Bft) 0,00 %
23.07.2015 03:05 21,7 C 72 % 1010,4 hPa 0,0 l/m 0,4 km/h (0 Bft) NW 311 0 min 0,000 mm 0,0 UV-I 0 W/m 16,4 C 21,7 C 4,0 km/h (1 Bft) 0,00 %
23.07.2015 03:10 21,7 C 72 % 1010,5 hPa 0,0 l/m 0,0 km/h (0 Bft) N 353 0 min 0,000 mm 0,0 UV-I 0 W/m 16,4 C 21,7 C 0,0 km/h (0 Bft) 0,00 %
23.07.2015 03:15 21,6 C 72 % 1010,3 hPa 0,0 l/m 0,7 km/h (0 Bft) NW 308 0 min 0,000 mm 0,0 UV-I 0 W/m 16,3 C 21,6 C 4,0 km/h (1 Bft) 0,00 %
23.07.2015 03:20 21,6 C 72 % 1010,4 hPa 0,0 l/m 0,0 km/h (0 Bft) N 356 0 min 0,000 mm 0,0 UV-I 0 W/m 16,3 C 21,6 C 0,0 km/h (0 Bft) 0,00 %
23.07.2015 03:25 21,5 C 73 % 1010,4 hPa 0,0 l/m 4,0 km/h (1 Bft) W-NW 291 0 min 0,000 mm 0,0 UV-I 0 W/m 16,4 C 21,5 C 7,9 km/h (2 Bft) 0,00 %
23.07.2015 03:30 21,5 C 73 % 1010,4 hPa 0,0 l/m 0,0 km/h (0 Bft) NO 39 0 min 0,000 mm 0,0 UV-I 0 W/m 16,4 C 21,5 C 0,0 km/h (0 Bft) 0,00 %
23.07.2015 03:35 21,4 C 73 % 1010,5 hPa 0,0 l/m 1,8 km/h (1 Bft) NW 320 0 min 0,000 mm 0,0 UV-I 0 W/m 16,4 C 21,4 C 4,0 km/h (1 Bft) 0,00 %
23.07.2015 03:40 21,4 C 73 % 1010,4 hPa 0,0 l/m 0,0 km/h (0 Bft) N-NO 24 0 min 0,000 mm 0,0 UV-I 0 W/m 16,4 C 21,4 C 0,0 km/h (0 Bft) 0,00 %
23.07.2015 03:45 21,3 C 73 % 1010,3 hPa 0,0 l/m 0,0 km/h (0 Bft) NO 45 0 min 0,000 mm 0,0 UV-I 0 W/m 16,3 C 21,3 C 0,0 km/h (0 Bft) 0,00 %
23.07.2015 03:50 21,3 C 74 % 1010,3 hPa 0,0 l/m 0,0 km/h (0 Bft) N 359 0 min 0,000 mm 0,0 UV-I 0 W/m 16,5 C 21,3 C 0,0 km/h (0 Bft) 0,00 %
23.07.2015 03:55 21,2 C 74 % 1010,3 hPa 0,0 l/m 0,0 km/h (0 Bft) NO 39 0 min 0,000 mm 0,0 UV-I 0 W/m 16,4 C 21,2 C 0,0 km/h (0 Bft) 0,00 %
23.07.2015 04:00 21,2 C 74 % 1010,1 hPa 0,0 l/m 0,4 km/h (0 Bft) W-NW 284 0 min 0,000 mm 0,0 UV-I 0 W/m 16,4 C 21,2 C 4,0 km/h (1 Bft) 0,00 %
23.07.2015 04:05 21,1 C 74 % 1010,4 hPa 0,0 l/m 0,0 km/h (0 Bft) N-NW 339 0 min 0,000 mm 0,0 UV-I 0 W/m 16,3 C 21,1 C 0,0 km/h (0 Bft) 0,00 %
23.07.2015 04:10 21,1 C 74 % 1010,5 hPa 0,0 l/m 0,0 km/h (0 Bft) N 354 0 min 0,000 mm 0,0 UV-I 0 W/m 16,3 C 21,1 C 0,0 km/h (0 Bft) 0,00 %
23.07.2015 04:15 21,1 C 74 % 1010,3 hPa 0,0 l/m 0,0 km/h (0 Bft) N 11 0 min 0,000 mm 0,0 UV-I 0 W/m 16,3 C 21,1 C 0,0 km/h (0 Bft) 0,00 %
23.07.2015 04:20 21,1 C 74 % 1010,1 hPa 0,0 l/m 0,0 km/h (0 Bft) NO 40 0 min 0,000 mm 0,0 UV-I 0 W/m 16,3 C 21,1 C 0,0 km/h (0 Bft) 0,00 %
23.07.2015 04:25 21,0 C 74 % 1010,3 hPa 0,0 l/m 0,0 km/h (0 Bft) N-NO 29 0 min 0,000 mm 0,0 UV-I 0 W/m 16,2 C 21,0 C 0,0 km/h (0 Bft) 0,00 %
23.07.2015 04:30 21,0 C 75 % 1010,1 hPa 0,0 l/m 0,0 km/h (0 Bft) N-NO 25 0 min 0,000 mm 0,0 UV-I 0 W/m 16,4 C 21,0 C 0,0 km/h (0 Bft) 0,00 %
23.07.2015 04:35 20,9 C 76 % 1009,9 hPa 0,0 l/m 0,0 km/h (0 Bft) NO 46 0 min 0,000 mm 0,0 UV-I 0 W/m 16,5 C 20,9 C 0,0 km/h (0 Bft) 0,00 %
23.07.2015 04:40 20,7 C 76 % 1009,9 hPa 0,0 l/m 0,0 km/h (0 Bft) NO 47 0 min 0,000 mm 0,0 UV-I 0 W/m 16,3 C 20,7 C 0,0 km/h (0 Bft) 0,00 %
23.07.2015 04:45 20,5 C 78 % 1010,0 hPa 0,0 l/m 0,0 km/h (0 Bft) NO 47 0 min 0,000 mm 0,0 UV-I 0 W/m 16,5 C 20,5 C 0,0 km/h (0 Bft) 0,00 %
23.07.2015 04:50 20,3 C 78 % 1010,1 hPa 0,0 l/m 0,0 km/h (0 Bft) NO 51 0 min 0,000 mm 0,0 UV-I 0 W/m 16,3 C 20,3 C 0,0 km/h (0 Bft) 0,00 %
23.07.2015 04:55 20,2 C 79 % 1010,0 hPa 0,0 l/m 0,0 km/h (0 Bft) NO 48 0 min 0,000 mm 0,0 UV-I 0 W/m 16,4 C 20,2 C 0,0 km/h (0 Bft) 0,00 %
23.07.2015 05:00 20,1 C 80 % 1010,0 hPa 0,0 l/m 0,0 km/h (0 Bft) N 359 0 min 0,000 mm 0,0 UV-I 0 W/m 16,5 C 20,1 C 0,0 km/h (0 Bft) 0,00 %
23.07.2015 05:05 19,9 C 80 % 1010,0 hPa 0,0 l/m 0,0 km/h (0 Bft) NO 40 0 min 0,000 mm 0,0 UV-I 0 W/m 16,3 C 19,9 C 0,0 km/h (0 Bft) 0,00 %
23.07.2015 05:10 19,8 C 80 % 1010,0 hPa 0,0 l/m 0,0 km/h (0 Bft) N-NO 29 0 min 0,000 mm 0,0 UV-I 0 W/m 16,2 C 19,8 C 0,0 km/h (0 Bft) 0,00 %
23.07.2015 05:15 19,7 C 80 % 1010,0 hPa 0,0 l/m 0,0 km/h (0 Bft) NO 44 0 min 0,000 mm 0,0 UV-I 0 W/m 16,1 C 19,7 C 0,0 km/h (0 Bft) 0,00 %
23.07.2015 05:20 19,7 C 80 % 1010,0 hPa 0,0 l/m 0,0 km/h (0 Bft) W-SW 256 0 min 0,000 mm 0,0 UV-I 0 W/m 16,1 C 19,7 C 0,0 km/h (0 Bft) 0,00 %
23.07.2015 05:25 19,8 C 79 % 1010,2 hPa 0,0 l/m 1,8 km/h (1 Bft) SW 229 0 min 0,000 mm 0,0 UV-I 0 W/m 16,0 C 19,8 C 4,0 km/h (1 Bft) 0,00 %
23.07.2015 05:30 20,0 C 77 % 1010,4 hPa 0,0 l/m 1,8 km/h (1 Bft) W-SW 255 0 min 0,000 mm 0,0 UV-I 0 W/m 15,8 C 20,0 C 4,0 km/h (1 Bft) 0,00 %
23.07.2015 05:35 20,4 C 75 % 1010,4 hPa 0,0 l/m 0,7 km/h (0 Bft) N-NO 23 0 min 0,000 mm 0,0 UV-I 0 W/m 15,8 C 20,4 C 4,0 km/h (1 Bft) 0,00 %
23.07.2015 05:40 20,7 C 75 % 1010,6 hPa 0,0 l/m 0,0 km/h (0 Bft) N-NW 329 0 min 0,000 mm 0,0 UV-I 0 W/m 16,1 C 20,7 C 0,0 km/h (0 Bft) 0,00 %
23.07.2015 05:45 20,8 C 74 % 1010,5 hPa 0,0 l/m 3,2 km/h (1 Bft) W 268 0 min 0,000 mm 0,0 UV-I 3 W/m 16,0 C 20,8 C 7,9 km/h (2 Bft) 0,00 %
23.07.2015 05:50 20,8 C 73 % 1010,7 hPa 0,0 l/m 9,7 km/h (2 Bft) W-SW 255 0 min 0,000 mm 0,0 UV-I 6 W/m 15,8 C 19,6 C 15,8 km/h (3 Bft) 0,00 %
23.07.2015 05:55 20,9 C 73 % 1010,8 hPa 0,0 l/m 0,7 km/h (0 Bft) W-SW 256 0 min 0,000 mm 0,0 UV-I 10 W/m 15,9 C 20,9 C 4,0 km/h (1 Bft) 0,00 %
23.07.2015 06:00 21,0 C 74 % 1010,8 hPa 0,0 l/m 0,4 km/h (0 Bft) NW 316 0 min 0,000 mm 0,0 UV-I 17 W/m 16,2 C 21,0 C 4,0 km/h (1 Bft) 0,00 %
23.07.2015 06:05 20,9 C 75 % 1010,7 hPa 0,0 l/m 0,4 km/h (0 Bft) NW 314 0 min 0,000 mm 0,0 UV-I 32 W/m 16,3 C 20,9 C 4,0 km/h (1 Bft) 0,00 %
23.07.2015 06:10 20,9 C 76 % 1010,8 hPa 0,0 l/m 0,7 km/h (0 Bft) W-NW 300 0 min 0,000 mm 0,0 UV-I 49 W/m 16,5 C 20,9 C 4,0 km/h (1 Bft) 0,00 %
23.07.2015 06:15 20,9 C 74 % 1010,8 hPa 0,0 l/m 6,8 km/h (2 Bft) W-NW 299 5 min 0,000 mm 0,0 UV-I 76 W/m 16,1 C 20,8 C 7,9 km/h (2 Bft) 0,00 %
23.07.2015 06:20 21,0 C 74 % 1010,9 hPa 0,0 l/m 1,8 km/h (1 Bft) N-NW 340 0 min 0,000 mm 0,0 UV-I 54 W/m 16,2 C 21,0 C 4,0 km/h (1 Bft) 0,00 %
23.07.2015 06:25 21,0 C 75 % 1010,9 hPa 0,0 l/m 0,7 km/h (0 Bft) N-NW 348 0 min 0,000 mm 0,0 UV-I 44 W/m 16,4 C 21,0 C 4,0 km/h (1 Bft) 0,00 %
23.07.2015 06:30 20,9 C 77 % 1011,0 hPa 0,0 l/m 0,7 km/h (0 Bft) W-SW 256 0 min 0,000 mm 0,0 UV-I 41 W/m 16,7 C 20,9 C 4,0 km/h (1 Bft) 0,00 %
23.07.2015 06:35 20,8 C 78 % 1010,7 hPa 0,0 l/m 2,2 km/h (1 Bft) N-NW 338 0 min 0,000 mm 0,0 UV-I 44 W/m 16,8 C 20,8 C 4,0 km/h (1 Bft) 0,00 %
23.07.2015 06:40 20,6 C 78 % 1011,1 hPa 0,0 l/m 0,4 km/h (0 Bft) N 1 0 min 0,000 mm 0,0 UV-I 55 W/m 16,6 C 20,6 C 4,0 km/h (1 Bft) 0,00 %
23.07.2015 06:45 20,5 C 79 % 1011,1 hPa 0,0 l/m 0,0 km/h (0 Bft) N-NO 31 0 min 0,000 mm 0,0 UV-I 75 W/m 16,7 C 20,5 C 0,0 km/h (0 Bft) 0,00 %
23.07.2015 06:50 20,5 C 79 % 1011,1 hPa 0,0 l/m 0,4 km/h (0 Bft) N 352 5 min 0,000 mm 1,0 UV-I 127 W/m 16,7 C 20,5 C 4,0 km/h (1 Bft) 0,00 %
23.07.2015 06:55 20,5 C 78 % 1011,1 hPa 0,0 l/m 1,8 km/h (1 Bft) S 191 5 min 0,000 mm 1,0 UV-I 167 W/m 16,5 C 20,5 C 4,0 km/h (1 Bft) 0,00 %
23.07.2015 07:00 20,8 C 76 % 1011,0 hPa 0,0 l/m 0,0 km/h (0 Bft) N 354 5 min 0,000 mm 1,0 UV-I 132 W/m 16,4 C 20,8 C 0,0 km/h (0 Bft) 0,00 %
23.07.2015 07:05 21,1 C 74 % 1011,1 hPa 0,0 l/m 2,2 km/h (1 Bft) S 183 5 min 0,000 mm 1,0 UV-I 156 W/m 16,3 C 21,1 C 4,0 km/h (1 Bft) 0,00 %
23.07.2015 07:10 21,5 C 73 % 1010,9 hPa 0,0 l/m 0,4 km/h (0 Bft) NW 320 5 min 0,000 mm 1,0 UV-I 156 W/m 16,4 C 21,5 C 4,0 km/h (1 Bft) 0,00 %
23.07.2015 07:15 21,7 C 73 % 1011,0 hPa 0,0 l/m 4,3 km/h (1 Bft) NW 321 5 min 0,000 mm 1,0 UV-I 317 W/m 16,6 C 21,7 C 7,9 km/h (2 Bft) 0,00 %
23.07.2015 07:20 21,9 C 72 % 1011,0 hPa 0,0 l/m 1,8 km/h (1 Bft) W-SW 256 5 min 0,000 mm 1,0 UV-I 348 W/m 16,6 C 21,9 C 4,0 km/h (1 Bft) 0,00 %
23.07.2015 07:25 22,4 C 69 % 1010,8 hPa 0,0 l/m 0,7 km/h (0 Bft) NO 53 5 min 0,000 mm 1,0 UV-I 397 W/m 16,4 C 22,4 C 4,0 km/h (1 Bft) 0,00 %
23.07.2015 07:30 23,0 C 68 % 1010,7 hPa 0,0 l/m 1,8 km/h (1 Bft) W-SW 255 5 min 0,000 mm 1,0 UV-I 399 W/m 16,8 C 23,0 C 4,0 km/h (1 Bft) 0,00 %
23.07.2015 07:35 23,6 C 64 % 1010,6 hPa 0,0 l/m 9,7 km/h (2 Bft) W-NW 300 5 min 0,000 mm 1,0 UV-I 373 W/m 16,4 C 22,7 C 11,9 km/h (2 Bft) 0,00 %
23.07.2015 07:40 24,0 C 62 % 1010,5 hPa 0,0 l/m 9,0 km/h (2 Bft) W-NW 287 5 min 0,000 mm 1,0 UV-I 398 W/m 16,3 C 23,3 C 11,9 km/h (2 Bft) 0,00 %
23.07.2015 07:45 24,2 C 61 % 1010,5 hPa 0,0 l/m 7,9 km/h (2 Bft) W-SW 256 5 min 0,000 mm 1,0 UV-I 217 W/m 16,2 C 23,8 C 11,9 km/h (2 Bft) 0,00 %
23.07.2015 07:50 24,3 C 62 % 1010,6 hPa 0,0 l/m 2,9 km/h (1 Bft) NW 318 0 min 0,000 mm 1,0 UV-I 171 W/m 16,5 C 24,3 C 7,9 km/h (2 Bft) 0,00 %
23.07.2015 07:55 24,1 C 63 % 1010,6 hPa 0,0 l/m 0,0 km/h (0 Bft) NO 52 0 min 0,000 mm 1,0 UV-I 166 W/m 16,6 C 24,1 C 0,0 km/h (0 Bft) 0,00 %
23.07.2015 08:00 23,7 C 64 % 1010,8 hPa 0,0 l/m 4,7 km/h (1 Bft) N-NW 329 5 min 0,000 mm 1,0 UV-I 219 W/m 16,5 C 23,7 C 7,9 km/h (2 Bft) 0,00 %
23.07.2015 08:05 23,2 C 66 % 1011,1 hPa 0,0 l/m 9,7 km/h (2 Bft) W 266 5 min 0,000 mm 1,0 UV-I 254 W/m 16,5 C 22,3 C 11,9 km/h (2 Bft) 0,00 %
23.07.2015 08:10 23,1 C 65 % 1011,2 hPa 0,0 l/m 8,3 km/h (2 Bft) W-SW 251 5 min 0,000 mm 1,0 UV-I 237 W/m 16,2 C 22,5 C 11,9 km/h (2 Bft) 0,00 %
23.07.2015 08:15 23,3 C 65 % 1011,2 hPa 0,0 l/m 9,0 km/h (2 Bft) SW 231 0 min 0,000 mm 1,0 UV-I 217 W/m 16,3 C 22,5 C 11,9 km/h (2 Bft) 0,00 %
23.07.2015 08:20 23,4 C 64 % 1011,0 hPa 0,0 l/m 9,7 km/h (2 Bft) W 281 5 min 0,000 mm 1,0 UV-I 287 W/m 16,2 C 22,5 C 15,8 km/h (3 Bft) 0,00 %
23.07.2015 08:25 23,5 C 65 % 1011,2 hPa 0,0 l/m 0,0 km/h (0 Bft) O-NO 57 5 min 0,000 mm 1,0 UV-I 342 W/m 16,5 C 23,5 C 0,0 km/h (0 Bft) 0,00 %
23.07.2015 08:30 23,7 C 63 % 1011,1 hPa 0,0 l/m 0,0 km/h (0 Bft) N 352 5 min 0,000 mm 1,0 UV-I 532 W/m 16,2 C 23,7 C 0,0 km/h (0 Bft) 0,00 %
23.07.2015 08:35 24,2 C 62 % 1011,3 hPa 0,0 l/m 0,0 km/h (0 Bft) NO 36 5 min 0,000 mm 1,0 UV-I 547 W/m 16,4 C 24,2 C 0,0 km/h (0 Bft) 0,00 %
23.07.2015 08:40 24,9 C 59 % 1011,2 hPa 0,0 l/m 5,8 km/h (2 Bft) N-NW 338 5 min 0,000 mm 2,0 UV-I 577 W/m 16,3 C 24,9 C 7,9 km/h (2 Bft) 0,00 %
23.07.2015 08:45 25,5 C 55 % 1010,9 hPa 0,0 l/m 6,8 km/h (2 Bft) NW 310 5 min 0,000 mm 2,0 UV-I 472 W/m 15,8 C 25,4 C 11,9 km/h (2 Bft) 0,00 %
23.07.2015 08:50 25,8 C 57 % 1011,0 hPa 0,0 l/m 5,8 km/h (2 Bft) NW 309 5 min 0,000 mm 2,0 UV-I 519 W/m 16,6 C 25,8 C 11,9 km/h (2 Bft) 0,00 %
23.07.2015 08:55 25,8 C 56 % 1011,3 hPa 0,0 l/m 4,0 km/h (1 Bft) N-NW 348 5 min 0,000 mm 2,0 UV-I 549 W/m 16,3 C 25,8 C 4,0 km/h (1 Bft) 0,00 %
23.07.2015 09:00 25,8 C 56 % 1011,2 hPa 0,0 l/m 0,7 km/h (0 Bft) O-NO 64 5 min 0,000 mm 2,0 UV-I 538 W/m 16,3 C 25,8 C 4,0 km/h (1 Bft) 0,00 %
23.07.2015 09:05 26,1 C 55 % 1011,3 hPa 0,0 l/m 7,2 km/h (2 Bft) NW 325 5 min 0,000 mm 2,0 UV-I 532 W/m 16,3 C 25,9 C 7,9 km/h (2 Bft) 0,00 %
23.07.2015 09:10 26,3 C 55 % 1011,4 hPa 0,0 l/m 1,4 km/h (1 Bft) N-NO 16 5 min 0,000 mm 2,0 UV-I 505 W/m 16,5 C 26,3 C 4,0 km/h (1 Bft) 0,00 %
23.07.2015 09:15 26,7 C 51 % 1011,2 hPa 0,0 l/m 0,4 km/h (0 Bft) N-NO 13 5 min 0,000 mm 2,0 UV-I 532 W/m 15,7 C 26,7 C 4,0 km/h (1 Bft) 0,00 %
23.07.2015 09:20 27,1 C 52 % 1011,3 hPa 0,0 l/m 0,0 km/h (0 Bft) N-NO 30 5 min 0,000 mm 2,0 UV-I 551 W/m 16,4 C 27,1 C 0,0 km/h (0 Bft) 0,00 %
23.07.2015 09:25 27,1 C 52 % 1011,1 hPa 0,0 l/m 1,4 km/h (1 Bft) N-NW 339 5 min 0,000 mm 2,0 UV-I 573 W/m 16,4 C 27,1 C 4,0 km/h (1 Bft) 0,00 %
23.07.2015 09:30 27,3 C 52 % 1011,1 hPa 0,0 l/m 2,9 km/h (1 Bft) NO 42 5 min 0,000 mm 2,0 UV-I 605 W/m 16,6 C 27,3 C 7,9 km/h (2 Bft) 0,00 %
23.07.2015 09:35 27,3 C 53 % 1011,2 hPa 0,0 l/m 1,4 km/h (1 Bft) N 350 5 min 0,000 mm 2,0 UV-I 631 W/m 16,9 C 27,3 C 4,0 km/h (1 Bft) 0,00 %
23.07.2015 09:40 27,3 C 52 % 1011,2 hPa 0,0 l/m 1,4 km/h (1 Bft) W 277 5 min 0,000 mm 2,0 UV-I 656 W/m 16,6 C 27,3 C 4,0 km/h (1 Bft) 0,00 %
23.07.2015 09:45 27,7 C 49 % 1011,2 hPa 0,0 l/m 0,0 km/h (0 Bft) N-NO 33 0 min 0,000 mm 2,0 UV-I 340 W/m 16,0 C 27,7 C 0,0 km/h (0 Bft) 0,00 %
23.07.2015 09:50 28,2 C 48 % 1011,0 hPa 0,0 l/m 4,0 km/h (1 Bft) W-NW 284 0 min 0,000 mm 2,0 UV-I 341 W/m 16,1 C 28,2 C 7,9 km/h (2 Bft) 0,00 %
23.07.2015 09:55 28,4 C 49 % 1010,9 hPa 0,0 l/m 3,2 km/h (1 Bft) S-SW 210 0 min 0,000 mm 2,0 UV-I 230 W/m 16,6 C 28,4 C 4,0 km/h (1 Bft) 0,00 %
23.07.2015 10:00 28,2 C 53 % 1011,1 hPa 0,0 l/m 0,7 km/h (0 Bft) N-NO 13 5 min 0,000 mm 2,0 UV-I 611 W/m 17,7 C 28,2 C 4,0 km/h (1 Bft) 0,00 %
23.07.2015 10:05 27,7 C 52 % 1011,3 hPa 0,0 l/m 1,4 km/h (1 Bft) NW 319 5 min 0,000 mm 2,0 UV-I 637 W/m 16,9 C 27,7 C 4,0 km/h (1 Bft) 0,00 %
23.07.2015 10:10 27,4 C 53 % 1011,3 hPa 0,0 l/m 4,3 km/h (1 Bft) O-NO 75 5 min 0,000 mm 3,0 UV-I 646 W/m 17,0 C 27,4 C 7,9 km/h (2 Bft) 0,00 %
23.07.2015 10:15 27,3 C 52 % 1011,3 hPa 0,0 l/m 9,0 km/h (2 Bft) W-SW 250 5 min 0,000 mm 3,0 UV-I 672 W/m 16,6 C 26,9 C 11,9 km/h (2 Bft) 0,00 %
23.07.2015 10:20 27,6 C 51 % 1011,3 hPa 0,0 l/m 4,3 km/h (1 Bft) N-NW 337 5 min 0,000 mm 3,0 UV-I 664 W/m 16,5 C 27,6 C 7,9 km/h (2 Bft) 0,00 %
23.07.2015 10:25 27,9 C 51 % 1011,3 hPa 0,0 l/m 0,0 km/h (0 Bft) NO 52 5 min 0,000 mm 3,0 UV-I 709 W/m 16,8 C 27,9 C 0,0 km/h (0 Bft) 0,00 %
23.07.2015 10:30 28,1 C 52 % 1011,3 hPa 0,0 l/m 2,9 km/h (1 Bft) O-NO 70 5 min 0,000 mm 3,0 UV-I 705 W/m 17,3 C 28,1 C 4,0 km/h (1 Bft) 0,00 %
23.07.2015 10:35 28,3 C 51 % 1011,5 hPa 0,0 l/m 6,8 km/h (2 Bft) N-NW 333 5 min 0,000 mm 3,0 UV-I 701 W/m 17,2 C 28,2 C 11,9 km/h (2 Bft) 0,00 %
23.07.2015 10:40 28,3 C 50 % 1011,4 hPa 0,0 l/m 0,0 km/h (0 Bft) N-NO 32 5 min 0,000 mm 3,0 UV-I 714 W/m 16,9 C 28,3 C 0,0 km/h (0 Bft) 0,00 %
23.07.2015 10:45 28,3 C 51 % 1011,4 hPa 0,0 l/m 1,8 km/h (1 Bft) N-NO 32 5 min 0,000 mm 3,0 UV-I 714 W/m 17,2 C 28,3 C 4,0 km/h (1 Bft) 0,00 %
23.07.2015 10:50 28,3 C 52 % 1011,5 hPa 0,0 l/m 0,4 km/h (0 Bft) W-NW 290 5 min 0,000 mm 3,0 UV-I 799 W/m 17,5 C 28,3 C 4,0 km/h (1 Bft) 0,00 %
23.07.2015 10:55 28,1 C 50 % 1011,5 hPa 0,0 l/m 5,4 km/h (1 Bft) W 262 5 min 0,000 mm 3,0 UV-I 727 W/m 16,7 C 28,1 C 7,9 km/h (2 Bft) 0,00 %
23.07.2015 11:00 28,3 C 50 % 1011,3 hPa 0,0 l/m 0,0 km/h (0 Bft) NO 37 5 min 0,000 mm 4,0 UV-I 803 W/m 16,9 C 28,3 C 0,0 km/h (0 Bft) 0,00 %
23.07.2015 11:05 28,8 C 49 % 1011,1 hPa 0,0 l/m 4,3 km/h (1 Bft) W-NW 303 5 min 0,000 mm 4,0 UV-I 648 W/m 17,0 C 28,8 C 7,9 km/h (2 Bft) 0,00 %
23.07.2015 11:10 29,1 C 48 % 1011,3 hPa 0,0 l/m 7,9 km/h (2 Bft) N 1 5 min 0,000 mm 2,0 UV-I 813 W/m 16,9 C 28,9 C 11,9 km/h (2 Bft) 0,00 %
23.07.2015 11:15 29,1 C 50 % 1011,1 hPa 0,0 l/m 0,0 km/h (0 Bft) N-NO 27 5 min 0,000 mm 4,0 UV-I 831 W/m 17,6 C 29,1 C 0,0 km/h (0 Bft) 0,00 %
23.07.2015 11:20 29,1 C 47 % 1011,3 hPa 0,0 l/m 0,0 km/h (0 Bft) S 177 5 min 0,000 mm 4,0 UV-I 754 W/m 16,6 C 29,1 C 0,0 km/h (0 Bft) 0,00 %
23.07.2015 11:25 29,3 C 47 % 1011,0 hPa 0,0 l/m 9,7 km/h (2 Bft) W-SW 255 5 min 0,000 mm 4,0 UV-I 871 W/m 16,8 C 28,9 C 15,8 km/h (3 Bft) 0,00 %
23.07.2015 11:30 29,1 C 49 % 1011,0 hPa 0,0 l/m 4,7 km/h (1 Bft) N 3 5 min 0,000 mm 4,0 UV-I 854 W/m 17,3 C 29,1 C 7,9 km/h (2 Bft) 0,00 %
23.07.2015 11:35 28,9 C 50 % 1011,1 hPa 0,0 l/m 5,4 km/h (1 Bft) N-NW 345 5 min 0,000 mm 3,0 UV-I 676 W/m 17,4 C 28,9 C 7,9 km/h (2 Bft) 0,00 %
23.07.2015 11:40 28,7 C 50 % 1011,2 hPa 0,0 l/m 4,3 km/h (1 Bft) S 178 5 min 0,000 mm 4,0 UV-I 852 W/m 17,2 C 28,7 C 7,9 km/h (2 Bft) 0,00 %
23.07.2015 11:45 28,8 C 49 % 1011,2 hPa 0,0 l/m 1,4 km/h (1 Bft) N-NO 28 0 min 0,000 mm 4,0 UV-I 347 W/m 17,0 C 28,8 C 4,0 km/h (1 Bft) 0,00 %
23.07.2015 11:50 29,0 C 49 % 1011,2 hPa 0,0 l/m 6,5 km/h (2 Bft) SW 216 5 min 0,000 mm 2,0 UV-I 845 W/m 17,2 C 29,0 C 11,9 km/h (2 Bft) 0,00 %
23.07.2015 11:55 28,7 C 51 % 1011,1 hPa 0,0 l/m 1,8 km/h (1 Bft) N 349 5 min 0,000 mm 4,0 UV-I 855 W/m 17,5 C 28,7 C 4,0 km/h (1 Bft) 0,00 %
23.07.2015 12:00 28,3 C 50 % 1011,2 hPa 0,0 l/m 1,4 km/h (1 Bft) O-NO 74 5 min 0,000 mm 4,0 UV-I 894 W/m 16,9 C 28,3 C 4,0 km/h (1 Bft) 0,00 %
23.07.2015 12:05 28,3 C 49 % 1010,9 hPa 0,0 l/m 1,4 km/h (1 Bft) W-SW 258 5 min 0,000 mm 2,0 UV-I 837 W/m 16,5 C 28,3 C 4,0 km/h (1 Bft) 0,00 %
23.07.2015 12:10 28,5 C 49 % 1010,8 hPa 0,0 l/m 0,7 km/h (0 Bft) NO 49 5 min 0,000 mm 3,0 UV-I 682 W/m 16,7 C 28,5 C 4,0 km/h (1 Bft) 0,00 %
23.07.2015 12:15 28,8 C 47 % 1010,6 hPa 0,0 l/m 4,7 km/h (1 Bft) SW 225 5 min 0,000 mm 5,0 UV-I 945 W/m 16,3 C 28,8 C 7,9 km/h (2 Bft) 0,00 %
23.07.2015 12:20 29,1 C 47 % 1010,7 hPa 0,0 l/m 2,9 km/h (1 Bft) SW 229 0 min 0,000 mm 3,0 UV-I 328 W/m 16,6 C 29,1 C 7,9 km/h (2 Bft) 0,00 %
23.07.2015 12:25 29,0 C 49 % 1010,6 hPa 0,0 l/m 0,4 km/h (0 Bft) NW 319 5 min 0,000 mm 2,0 UV-I 836 W/m 17,2 C 29,0 C 4,0 km/h (1 Bft) 0,00 %
23.07.2015 12:30 28,8 C 50 % 1010,7 hPa 0,0 l/m 14,0 km/h (3 Bft) W 276 5 min 0,000 mm 5,0 UV-I 965 W/m 17,3 C 28,0 C 19,8 km/h (3 Bft) 0,00 %
23.07.2015 12:35 28,7 C 47 % 1010,6 hPa 0,0 l/m 1,8 km/h (1 Bft) N 2 5 min 0,000 mm 4,0 UV-I 975 W/m 16,3 C 28,7 C 4,0 km/h (1 Bft) 0,00 %
23.07.2015 12:40 29,1 C 49 % 1010,6 hPa 0,0 l/m 0,0 km/h (0 Bft) NO 47 5 min 0,000 mm 2,0 UV-I 950 W/m 17,3 C 29,1 C 0,0 km/h (0 Bft) 0,00 %
23.07.2015 12:45 29,3 C 47 % 1010,4 hPa 0,0 l/m 2,2 km/h (1 Bft) NW 307 5 min 0,000 mm 2,0 UV-I 922 W/m 16,8 C 29,3 C 4,0 km/h (1 Bft) 0,00 %
23.07.2015 12:50 29,3 C 48 % 1010,2 hPa 0,0 l/m 1,4 km/h (1 Bft) NO 35 5 min 0,000 mm 5,0 UV-I 891 W/m 17,1 C 29,3 C 4,0 km/h (1 Bft) 0,00 %
23.07.2015 12:55 29,5 C 50 % 1010,2 hPa 0,0 l/m 3,2 km/h (1 Bft) NW 326 5 min 0,000 mm 5,0 UV-I 508 W/m 18,0 C 29,5 C 7,9 km/h (2 Bft) 0,00 %
23.07.2015 13:00 29,6 C 48 % 1010,3 hPa 0,0 l/m 5,8 km/h (2 Bft) W-NW 282 5 min 0,000 mm 5,0 UV-I 1024 W/m 17,4 C 29,6 C 7,9 km/h (2 Bft) 0,00 %
23.07.2015 13:05 29,7 C 47 % 1010,2 hPa 0,0 l/m 0,7 km/h (0 Bft) W-SW 256 5 min 0,000 mm 5,0 UV-I 997 W/m 17,2 C 29,7 C 4,0 km/h (1 Bft) 0,00 %
23.07.2015 13:10 29,7 C 49 % 1010,2 hPa 0,0 l/m 0,4 km/h (0 Bft) N 0 5 min 0,000 mm 5,0 UV-I 782 W/m 17,8 C 29,7 C 4,0 km/h (1 Bft) 0,00 %
23.07.2015 13:15 29,7 C 45 % 1010,2 hPa 0,0 l/m 2,2 km/h (1 Bft) NW 321 5 min 0,000 mm 3,0 UV-I 715 W/m 16,5 C 29,7 C 4,0 km/h (1 Bft) 0,00 %
23.07.2015 13:20 29,9 C 45 % 1010,1 hPa 0,0 l/m 1,4 km/h (1 Bft) O 96 5 min 0,000 mm 3,0 UV-I 953 W/m 16,7 C 29,9 C 4,0 km/h (1 Bft) 0,00 %
23.07.2015 13:25 30,1 C 44 % 1010,0 hPa 0,0 l/m 2,9 km/h (1 Bft) NW 316 5 min 0,000 mm 5,0 UV-I 993 W/m 16,5 C 30,1 C 7,9 km/h (2 Bft) 0,00 %
23.07.2015 13:30 30,1 C 44 % 1010,0 hPa 0,0 l/m 4,3 km/h (1 Bft) S 179 5 min 0,000 mm 3,0 UV-I 916 W/m 16,5 C 30,1 C 7,9 km/h (2 Bft) 0,00 %
23.07.2015 13:35 30,0 C 45 % 1010,0 hPa 0,0 l/m 4,7 km/h (1 Bft) W 259 5 min 0,000 mm 4,0 UV-I 962 W/m 16,7 C 30,0 C 7,9 km/h (2 Bft) 0,00 %
23.07.2015 13:40 29,8 C 49 % 1009,8 hPa 0,0 l/m 0,4 km/h (0 Bft) N-NW 335 0 min 0,000 mm 5,0 UV-I 381 W/m 17,9 C 29,8 C 4,0 km/h (1 Bft) 0,00 %
23.07.2015 13:45 29,7 C 45 % 1010,1 hPa 0,0 l/m 6,8 km/h (2 Bft) W 259 5 min 0,000 mm 5,0 UV-I 957 W/m 16,5 C 29,7 C 7,9 km/h (2 Bft) 0,00 %
23.07.2015 13:50 29,8 C 43 % 1010,1 hPa 0,0 l/m 0,0 km/h (0 Bft) NO 36 5 min 0,000 mm 4,0 UV-I 978 W/m 15,8 C 29,8 C 0,0 km/h (0 Bft) 0,00 %
23.07.2015 13:55 30,0 C 44 % 1009,8 hPa 0,0 l/m 0,7 km/h (0 Bft) SO 138 5 min 0,000 mm 5,0 UV-I 948 W/m 16,4 C 30,0 C 4,0 km/h (1 Bft) 0,00 %
23.07.2015 14:00 30,3 C 43 % 1009,8 hPa 0,0 l/m 0,7 km/h (0 Bft) O-NO 65 5 min 0,000 mm 3,0 UV-I 931 W/m 16,3 C 30,3 C 4,0 km/h (1 Bft) 0,00 %
23.07.2015 14:05 30,6 C 43 % 1009,7 hPa 0,0 l/m 4,3 km/h (1 Bft) N-NW 346 5 min 0,000 mm 2,0 UV-I 958 W/m 16,6 C 30,6 C 7,9 km/h (2 Bft) 0,00 %
23.07.2015 14:10 30,5 C 44 % 1009,6 hPa 0,0 l/m 4,0 km/h (1 Bft) SO 124 5 min 0,000 mm 4,0 UV-I 672 W/m 16,8 C 30,5 C 4,0 km/h (1 Bft) 0,00 %
23.07.2015 14:15 30,3 C 43 % 1009,7 hPa 0,0 l/m 1,4 km/h (1 Bft) O-SO 114 5 min 0,000 mm 4,0 UV-I 934 W/m 16,3 C 30,3 C 4,0 km/h (1 Bft) 0,00 %
23.07.2015 14:20 30,5 C 41 % 1009,7 hPa 0,0 l/m 0,0 km/h (0 Bft) NW 324 5 min 0,000 mm 4,0 UV-I 950 W/m 15,7 C 30,5 C 0,0 km/h (0 Bft) 0,00 %
23.07.2015 14:25 30,9 C 40 % 1009,6 hPa 0,0 l/m 0,0 km/h (0 Bft) NO 43 5 min 0,000 mm 4,0 UV-I 937 W/m 15,7 C 30,9 C 0,0 km/h (0 Bft) 0,00 %
23.07.2015 14:30 30,9 C 42 % 1009,4 hPa 0,0 l/m 0,0 km/h (0 Bft) NO 41 5 min 0,000 mm 4,0 UV-I 934 W/m 16,5 C 30,9 C 0,0 km/h (0 Bft) 0,00 %
23.07.2015 14:35 30,8 C 42 % 1009,5 hPa 0,0 l/m 1,4 km/h (1 Bft) N-NO 18 5 min 0,000 mm 4,0 UV-I 894 W/m 16,4 C 30,8 C 4,0 km/h (1 Bft) 0,00 %
23.07.2015 14:40 30,6 C 43 % 1009,7 hPa 0,0 l/m 1,8 km/h (1 Bft) NO 49 5 min 0,000 mm 4,0 UV-I 835 W/m 16,6 C 30,6 C 4,0 km/h (1 Bft) 0,00 %
23.07.2015 14:45 30,2 C 42 % 1009,7 hPa 0,0 l/m 6,5 km/h (2 Bft) W 271 5 min 0,000 mm 4,0 UV-I 941 W/m 15,8 C 30,2 C 7,9 km/h (2 Bft) 0,00 %
23.07.2015 14:50 30,1 C 43 % 1009,6 hPa 0,0 l/m 0,0 km/h (0 Bft) NO 46 5 min 0,000 mm 4,0 UV-I 948 W/m 16,1 C 30,1 C 0,0 km/h (0 Bft) 0,00 %
23.07.2015 14:55 30,1 C 43 % 1009,6 hPa 0,0 l/m 2,9 km/h (1 Bft) N-NO 13 5 min 0,000 mm 4,0 UV-I 937 W/m 16,1 C 30,1 C 7,9 km/h (2 Bft) 0,00 %
23.07.2015 15:00 29,9 C 45 % 1009,6 hPa 0,0 l/m 7,9 km/h (2 Bft) NO 50 5 min 0,000 mm 4,0 UV-I 922 W/m 16,7 C 29,8 C 11,9 km/h (2 Bft) 0,00 %
23.07.2015 15:05 29,9 C 42 % 1009,5 hPa 0,0 l/m 5,4 km/h (1 Bft) N-NO 13 5 min 0,000 mm 4,0 UV-I 907 W/m 15,6 C 29,9 C 11,9 km/h (2 Bft) 0,00 %
23.07.2015 15:10 30,0 C 42 % 1009,4 hPa 0,0 l/m 5,8 km/h (2 Bft) N 3 5 min 0,000 mm 4,0 UV-I 896 W/m 15,7 C 30,0 C 7,9 km/h (2 Bft) 0,00 %
23.07.2015 15:15 30,0 C 43 % 1009,7 hPa 0,0 l/m 2,2 km/h (1 Bft) W-NW 294 5 min 0,000 mm 4,0 UV-I 910 W/m 16,0 C 30,0 C 4,0 km/h (1 Bft) 0,00 %
23.07.2015 15:20 30,1 C 42 % 1009,5 hPa 0,0 l/m 0,0 km/h (0 Bft) N-NO 18 5 min 0,000 mm 4,0 UV-I 924 W/m 15,7 C 30,1 C 0,0 km/h (0 Bft) 0,00 %
23.07.2015 15:25 30,3 C 42 % 1009,6 hPa 0,0 l/m 0,0 km/h (0 Bft) N-NO 15 5 min 0,000 mm 4,0 UV-I 905 W/m 15,9 C 30,3 C 0,0 km/h (0 Bft) 0,00 %
23.07.2015 15:30 30,2 C 44 % 1009,5 hPa 0,0 l/m 0,0 km/h (0 Bft) NO 56 5 min 0,000 mm 3,0 UV-I 922 W/m 16,6 C 30,2 C 0,0 km/h (0 Bft) 0,00 %
23.07.2015 15:35 30,0 C 42 % 1009,4 hPa 0,0 l/m 4,7 km/h (1 Bft) W-SW 255 5 min 0,000 mm 3,0 UV-I 913 W/m 15,7 C 30,0 C 7,9 km/h (2 Bft) 0,00 %
23.07.2015 15:40 29,9 C 43 % 1009,4 hPa 0,0 l/m 0,0 km/h (0 Bft) N 352 5 min 0,000 mm 3,0 UV-I 910 W/m 15,9 C 29,9 C 0,0 km/h (0 Bft) 0,00 %
23.07.2015 15:45 30,2 C 41 % 1009,5 hPa 0,0 l/m 1,8 km/h (1 Bft) N-NO 25 5 min 0,000 mm 3,0 UV-I 903 W/m 15,5 C 30,2 C 4,0 km/h (1 Bft) 0,00 %
23.07.2015 15:50 30,5 C 41 % 1009,3 hPa 0,0 l/m 0,7 km/h (0 Bft) N-NW 348 5 min 0,000 mm 3,0 UV-I 895 W/m 15,7 C 30,5 C 4,0 km/h (1 Bft) 0,00 %
23.07.2015 15:55 30,6 C 40 % 1009,1 hPa 0,0 l/m 0,0 km/h (0 Bft) NO 44 5 min 0,000 mm 3,0 UV-I 866 W/m 15,4 C 30,6 C 0,0 km/h (0 Bft) 0,00 %
23.07.2015 16:00 30,7 C 39 % 1009,2 hPa 0,0 l/m 1,4 km/h (1 Bft) NW 313 5 min 0,000 mm 3,0 UV-I 886 W/m 15,1 C 30,7 C 4,0 km/h (1 Bft) 0,00 %
23.07.2015 16:05 30,9 C 39 % 1009,1 hPa 0,0 l/m 2,9 km/h (1 Bft) W 271 5 min 0,000 mm 3,0 UV-I 897 W/m 15,3 C 30,9 C 4,0 km/h (1 Bft) 0,00 %
23.07.2015 16:10 30,9 C 39 % 1009,0 hPa 0,0 l/m 1,8 km/h (1 Bft) O 81 5 min 0,000 mm 3,0 UV-I 857 W/m 15,3 C 30,9 C 4,0 km/h (1 Bft) 0,00 %
23.07.2015 16:15 30,8 C 40 % 1009,0 hPa 0,0 l/m 2,2 km/h (1 Bft) S-SW 209 5 min 0,000 mm 3,0 UV-I 848 W/m 15,6 C 30,8 C 4,0 km/h (1 Bft) 0,00 %
23.07.2015 16:20 30,7 C 41 % 1009,1 hPa 0,0 l/m 0,0 km/h (0 Bft) N 8 5 min 0,000 mm 3,0 UV-I 865 W/m 15,9 C 30,7 C 0,0 km/h (0 Bft) 0,00 %
23.07.2015 16:25 30,6 C 40 % 1009,2 hPa 0,0 l/m 0,0 km/h (0 Bft) O-NO 57 5 min 0,000 mm 3,0 UV-I 864 W/m 15,4 C 30,6 C 0,0 km/h (0 Bft) 0,00 %
23.07.2015 16:30 30,5 C 41 % 1009,1 hPa 0,0 l/m 2,2 km/h (1 Bft) N 352 5 min 0,000 mm 3,0 UV-I 858 W/m 15,7 C 30,5 C 4,0 km/h (1 Bft) 0,00 %
23.07.2015 16:35 30,5 C 41 % 1009,0 hPa 0,0 l/m 0,7 km/h (0 Bft) NO 52 5 min 0,000 mm 2,0 UV-I 851 W/m 15,7 C 30,5 C 4,0 km/h (1 Bft) 0,00 %
23.07.2015 16:40 30,6 C 40 % 1009,1 hPa 0,0 l/m 1,8 km/h (1 Bft) W-NW 284 5 min 0,000 mm 2,0 UV-I 824 W/m 15,4 C 30,6 C 4,0 km/h (1 Bft) 0,00 %
23.07.2015 16:45 30,5 C 39 % 1008,8 hPa 0,0 l/m 0,4 km/h (0 Bft) N-NO 18 5 min 0,000 mm 2,0 UV-I 809 W/m 15,0 C 30,5 C 4,0 km/h (1 Bft) 0,00 %
23.07.2015 16:50 30,4 C 41 % 1008,9 hPa 0,0 l/m 2,2 km/h (1 Bft) W-NW 300 5 min 0,000 mm 2,0 UV-I 794 W/m 15,6 C 30,4 C 4,0 km/h (1 Bft) 0,00 %
23.07.2015 16:55 30,2 C 41 % 1009,1 hPa 0,0 l/m 2,2 km/h (1 Bft) N-NO 33 5 min 0,000 mm 2,0 UV-I 780 W/m 15,5 C 30,2 C 4,0 km/h (1 Bft) 0,00 %
23.07.2015 17:00 30,4 C 40 % 1008,9 hPa 0,0 l/m 0,4 km/h (0 Bft) N-NO 16 5 min 0,000 mm 2,0 UV-I 772 W/m 15,3 C 30,4 C 4,0 km/h (1 Bft) 0,00 %
23.07.2015 17:05 30,5 C 40 % 1008,8 hPa 0,0 l/m 6,8 km/h (2 Bft) W 268 5 min 0,000 mm 2,0 UV-I 795 W/m 15,3 C 30,5 C 7,9 km/h (2 Bft) 0,00 %
23.07.2015 17:10 30,3 C 41 % 1008,9 hPa 0,0 l/m 4,7 km/h (1 Bft) W-SW 256 5 min 0,000 mm 1,0 UV-I 757 W/m 15,6 C 30,3 C 7,9 km/h (2 Bft) 0,00 %
23.07.2015 17:15 29,9 C 42 % 1009,0 hPa 0,0 l/m 0,4 km/h (0 Bft) SW 216 5 min 0,000 mm 2,0 UV-I 744 W/m 15,6 C 29,9 C 4,0 km/h (1 Bft) 0,00 %
23.07.2015 17:20 29,8 C 41 % 1009,0 hPa 0,0 l/m 0,0 km/h (0 Bft) O-NO 60 0 min 0,000 mm 1,0 UV-I 268 W/m 15,1 C 29,8 C 0,0 km/h (0 Bft) 0,00 %
23.07.2015 17:25 29,9 C 41 % 1009,0 hPa 0,0 l/m 0,0 km/h (0 Bft) NO 38 0 min 0,000 mm 1,0 UV-I 211 W/m 15,2 C 29,9 C 0,0 km/h (0 Bft) 0,00 %
23.07.2015 17:30 30,0 C 43 % 1008,9 hPa 0,0 l/m 0,0 km/h (0 Bft) O-NO 60 0 min 0,000 mm 1,0 UV-I 201 W/m 16,0 C 30,0 C 0,0 km/h (0 Bft) 0,00 %
23.07.2015 17:35 30,2 C 41 % 1008,8 hPa 0,0 l/m 0,0 km/h (0 Bft) N-NW 330 0 min 0,000 mm 1,0 UV-I 232 W/m 15,5 C 30,2 C 0,0 km/h (0 Bft) 0,00 %
23.07.2015 17:40 30,5 C 42 % 1008,7 hPa 0,0 l/m 0,0 km/h (0 Bft) N 5 0 min 0,000 mm 1,0 UV-I 193 W/m 16,1 C 30,5 C 0,0 km/h (0 Bft) 0,00 %
23.07.2015 17:45 30,7 C 42 % 1008,8 hPa 0,0 l/m 3,2 km/h (1 Bft) W 266 0 min 0,000 mm 1,0 UV-I 205 W/m 16,3 C 30,7 C 7,9 km/h (2 Bft) 0,00 %
23.07.2015 17:50 30,7 C 41 % 1008,9 hPa 0,0 l/m 0,0 km/h (0 Bft) NO 35 0 min 0,000 mm 1,0 UV-I 246 W/m 15,9 C 30,7 C 0,0 km/h (0 Bft) 0,00 %
23.07.2015 17:55 30,3 C 43 % 1008,8 hPa 0,0 l/m 4,3 km/h (1 Bft) N 351 5 min 0,000 mm 1,0 UV-I 253 W/m 16,3 C 30,3 C 7,9 km/h (2 Bft) 0,00 %
23.07.2015 18:00 29,6 C 45 % 1008,9 hPa 0,0 l/m 0,0 km/h (0 Bft) O-NO 63 0 min 0,000 mm 1,0 UV-I 232 W/m 16,4 C 29,6 C 0,0 km/h (0 Bft) 0,00 %
23.07.2015 18:05 29,1 C 47 % 1008,7 hPa 0,0 l/m 2,9 km/h (1 Bft) N 350 5 min 0,000 mm 1,0 UV-I 499 W/m 16,6 C 29,1 C 4,0 km/h (1 Bft) 0,00 %
23.07.2015 18:10 28,7 C 48 % 1009,1 hPa 0,0 l/m 0,0 km/h (0 Bft) NO 56 5 min 0,000 mm 1,0 UV-I 516 W/m 16,6 C 28,7 C 0,0 km/h (0 Bft) 0,00 %
23.07.2015 18:15 28,3 C 48 % 1008,9 hPa 0,0 l/m 2,2 km/h (1 Bft) N 349 5 min 0,000 mm 1,0 UV-I 513 W/m 16,2 C 28,3 C 4,0 km/h (1 Bft) 0,00 %
23.07.2015 18:20 28,0 C 50 % 1008,7 hPa 0,0 l/m 0,0 km/h (0 Bft) W-SW 256 5 min 0,000 mm 1,0 UV-I 497 W/m 16,6 C 28,0 C 0,0 km/h (0 Bft) 0,00 %
23.07.2015 18:25 27,8 C 50 % 1008,8 hPa 0,0 l/m 0,0 km/h (0 Bft) N-NW 337 5 min 0,000 mm 1,0 UV-I 472 W/m 16,4 C 27,8 C 0,0 km/h (0 Bft) 0,00 %
23.07.2015 18:30 27,8 C 51 % 1009,0 hPa 0,0 l/m 0,0 km/h (0 Bft) NO 46 5 min 0,000 mm 1,0 UV-I 473 W/m 16,7 C 27,8 C 0,0 km/h (0 Bft) 0,00 %
23.07.2015 18:35 27,8 C 50 % 1008,9 hPa 0,0 l/m 0,7 km/h (0 Bft) W-NW 288 5 min 0,000 mm 1,0 UV-I 442 W/m 16,4 C 27,8 C 4,0 km/h (1 Bft) 0,00 %
23.07.2015 18:40 27,9 C 49 % 1008,9 hPa 0,0 l/m 0,0 km/h (0 Bft) NO 43 5 min 0,000 mm 1,0 UV-I 431 W/m 16,2 C 27,9 C 0,0 km/h (0 Bft) 0,00 %
23.07.2015 18:45 28,3 C 48 % 1008,8 hPa 0,0 l/m 0,0 km/h (0 Bft) NO 36 5 min 0,000 mm 1,0 UV-I 394 W/m 16,2 C 28,3 C 0,0 km/h (0 Bft) 0,00 %
23.07.2015 18:50 28,6 C 48 % 1008,9 hPa 0,0 l/m 0,0 km/h (0 Bft) NO 46 5 min 0,000 mm 1,0 UV-I 385 W/m 16,5 C 28,6 C 0,0 km/h (0 Bft) 0,00 %
23.07.2015 18:55 28,8 C 48 % 1008,7 hPa 0,0 l/m 1,4 km/h (1 Bft) O 87 5 min 0,000 mm 1,0 UV-I 343 W/m 16,7 C 28,8 C 4,0 km/h (1 Bft) 0,00 %
23.07.2015 19:00 28,8 C 48 % 1008,7 hPa 0,0 l/m 0,7 km/h (0 Bft) NO 54 5 min 0,000 mm 1,0 UV-I 280 W/m 16,7 C 28,8 C 4,0 km/h (1 Bft) 0,00 %
23.07.2015 19:05 28,9 C 46 % 1008,7 hPa 0,0 l/m 0,0 km/h (0 Bft) N-NO 33 5 min 0,000 mm 1,0 UV-I 174 W/m 16,1 C 28,9 C 0,0 km/h (0 Bft) 0,00 %
23.07.2015 19:10 28,9 C 47 % 1008,7 hPa 0,0 l/m 0,0 km/h (0 Bft) N-NO 33 5 min 0,000 mm 1,0 UV-I 159 W/m 16,4 C 28,9 C 0,0 km/h (0 Bft) 0,00 %
23.07.2015 19:15 28,8 C 47 % 1008,6 hPa 0,0 l/m 0,0 km/h (0 Bft) N-NO 33 5 min 0,000 mm 1,0 UV-I 173 W/m 16,3 C 28,8 C 0,0 km/h (0 Bft) 0,00 %
23.07.2015 19:20 28,8 C 46 % 1008,8 hPa 0,0 l/m 0,0 km/h (0 Bft) NO 49 5 min 0,000 mm 1,0 UV-I 182 W/m 16,0 C 28,8 C 0,0 km/h (0 Bft) 0,00 %
23.07.2015 19:25 28,9 C 47 % 1008,7 hPa 0,0 l/m 0,0 km/h (0 Bft) NO 47 5 min 0,000 mm 1,0 UV-I 184 W/m 16,4 C 28,9 C 0,0 km/h (0 Bft) 0,00 %
23.07.2015 19:30 28,8 C 47 % 1008,7 hPa 0,0 l/m 0,0 km/h (0 Bft) N-NO 15 5 min 0,000 mm 0,0 UV-I 157 W/m 16,3 C 28,8 C 0,0 km/h (0 Bft) 0,00 %
23.07.2015 19:35 28,6 C 47 % 1008,9 hPa 0,0 l/m 0,0 km/h (0 Bft) NO 46 5 min 0,000 mm 0,0 UV-I 128 W/m 16,2 C 28,6 C 0,0 km/h (0 Bft) 0,00 %
23.07.2015 19:40 28,2 C 49 % 1009,0 hPa 0,0 l/m 0,0 km/h (0 Bft) O-SO 104 0 min 0,000 mm 0,0 UV-I 89 W/m 16,5 C 28,2 C 0,0 km/h (0 Bft) 0,00 %
23.07.2015 19:45 27,9 C 50 % 1009,1 hPa 0,0 l/m 0,0 km/h (0 Bft) N-NO 29 0 min 0,000 mm 0,0 UV-I 54 W/m 16,5 C 27,9 C 0,0 km/h (0 Bft) 0,00 %
23.07.2015 19:50 27,5 C 51 % 1009,0 hPa 0,0 l/m 0,0 km/h (0 Bft) NO 48 0 min 0,000 mm 0,0 UV-I 39 W/m 16,4 C 27,5 C 0,0 km/h (0 Bft) 0,00 %
23.07.2015 19:55 27,2 C 51 % 1009,2 hPa 0,0 l/m 0,0 km/h (0 Bft) N-NO 28 0 min 0,000 mm 0,0 UV-I 28 W/m 16,2 C 27,2 C 0,0 km/h (0 Bft) 0,00 %
23.07.2015 20:00 27,2 C 53 % 1009,4 hPa 0,0 l/m 0,0 km/h (0 Bft) NO 48 0 min 0,000 mm 0,0 UV-I 21 W/m 16,8 C 27,2 C 0,0 km/h (0 Bft) 0,00 %
23.07.2015 20:05 27,2 C 52 % 1009,6 hPa 0,0 l/m 0,0 km/h (0 Bft) N 354 0 min 0,000 mm 0,0 UV-I 9 W/m 16,5 C 27,2 C 0,0 km/h (0 Bft) 0,00 %
23.07.2015 20:10 27,1 C 54 % 1009,6 hPa 0,0 l/m 0,0 km/h (0 Bft) N-NW 330 0 min 0,000 mm 0,0 UV-I 3 W/m 17,0 C 27,1 C 0,0 km/h (0 Bft) 0,00 %
23.07.2015 20:15 26,8 C 56 % 1009,6 hPa 0,0 l/m 0,0 km/h (0 Bft) W-SW 256 0 min 0,000 mm 0,0 UV-I 0 W/m 17,3 C 26,8 C 0,0 km/h (0 Bft) 0,00 %
23.07.2015 20:20 26,5 C 58 % 1009,7 hPa 0,0 l/m 4,0 km/h (1 Bft) W-NW 284 0 min 0,000 mm 0,0 UV-I 0 W/m 17,5 C 26,5 C 4,0 km/h (1 Bft) 0,00 %
23.07.2015 20:25 26,1 C 60 % 1009,8 hPa 0,0 l/m 0,0 km/h (0 Bft) NO 35 0 min 0,000 mm 0,0 UV-I 0 W/m 17,7 C 26,1 C 0,0 km/h (0 Bft) 0,00 %
23.07.2015 20:30 25,7 C 61 % 1009,9 hPa 0,0 l/m 0,0 km/h (0 Bft) S-SW 199 0 min 0,000 mm 0,0 UV-I 0 W/m 17,6 C 25,7 C 0,0 km/h (0 Bft) 0,00 %
23.07.2015 20:35 25,3 C 61 % 1010,0 hPa 0,0 l/m 0,4 km/h (0 Bft) O-NO 58 0 min 0,000 mm 0,0 UV-I 0 W/m 17,2 C 25,3 C 4,0 km/h (1 Bft) 0,00 %
23.07.2015 20:40 25,1 C 61 % 1010,2 hPa 0,0 l/m 0,0 km/h (0 Bft) NO 50 0 min 0,000 mm 0,0 UV-I 0 W/m 17,0 C 25,1 C 0,0 km/h (0 Bft) 0,00 %
23.07.2015 20:45 24,9 C 63 % 1010,2 hPa 0,0 l/m 0,0 km/h (0 Bft) O-NO 58 0 min 0,000 mm 0,0 UV-I 0 W/m 17,4 C 24,9 C 0,0 km/h (0 Bft) 0,00 %
23.07.2015 20:50 24,7 C 63 % 1010,5 hPa 0,0 l/m 0,0 km/h (0 Bft) N-NO 33 0 min 0,000 mm 0,0 UV-I 0 W/m 17,2 C 24,7 C 0,0 km/h (0 Bft) 0,00 %
23.07.2015 20:55 24,6 C 64 % 1010,6 hPa 0,0 l/m 0,0 km/h (0 Bft) N-NO 23 0 min 0,000 mm 0,0 UV-I 0 W/m 17,3 C 24,6 C 0,0 km/h (0 Bft) 0,00 %
23.07.2015 21:00 24,5 C 65 % 1010,6 hPa 0,0 l/m 0,4 km/h (0 Bft) W-SW 257 0 min 0,000 mm 0,0 UV-I 0 W/m 17,5 C 24,5 C 4,0 km/h (1 Bft) 0,00 %
23.07.2015 21:05 24,5 C 65 % 1010,9 hPa 0,0 l/m 2,2 km/h (1 Bft) W-SW 254 0 min 0,000 mm 0,0 UV-I 0 W/m 17,5 C 24,5 C 4,0 km/h (1 Bft) 0,00 %
23.07.2015 21:10 24,5 C 65 % 1010,7 hPa 0,0 l/m 0,0 km/h (0 Bft) NO 52 0 min 0,000 mm 0,0 UV-I 0 W/m 17,5 C 24,5 C 0,0 km/h (0 Bft) 0,00 %
23.07.2015 21:15 24,5 C 65 % 1010,9 hPa 0,0 l/m 0,0 km/h (0 Bft) W-NW 291 0 min 0,000 mm 0,0 UV-I 0 W/m 17,5 C 24,5 C 0,0 km/h (0 Bft) 0,00 %
23.07.2015 21:20 24,5 C 65 % 1011,0 hPa 0,0 l/m 0,0 km/h (0 Bft) N 354 0 min 0,000 mm 0,0 UV-I 0 W/m 17,5 C 24,5 C 0,0 km/h (0 Bft) 0,00 %
23.07.2015 21:25 24,4 C 66 % 1011,1 hPa 0,0 l/m 1,4 km/h (1 Bft) W-SW 254 0 min 0,000 mm 0,0 UV-I 0 W/m 17,6 C 24,4 C 4,0 km/h (1 Bft) 0,00 %
23.07.2015 21:30 24,3 C 66 % 1011,1 hPa 0,0 l/m 0,0 km/h (0 Bft) NO 50 0 min 0,000 mm 0,0 UV-I 0 W/m 17,5 C 24,3 C 0,0 km/h (0 Bft) 0,00 %
23.07.2015 21:35 24,2 C 67 % 1011,1 hPa 0,0 l/m 0,4 km/h (0 Bft) N-NO 29 0 min 0,000 mm 0,0 UV-I 0 W/m 17,7 C 24,2 C 4,0 km/h (1 Bft) 0,00 %
23.07.2015 21:40 24,1 C 67 % 1011,2 hPa 0,0 l/m 0,0 km/h (0 Bft) NO 51 0 min 0,000 mm 0,0 UV-I 0 W/m 17,6 C 24,1 C 0,0 km/h (0 Bft) 0,00 %
23.07.2015 21:45 24,0 C 68 % 1011,3 hPa 0,0 l/m 0,0 km/h (0 Bft) NO 34 0 min 0,000 mm 0,0 UV-I 0 W/m 17,7 C 24,0 C 0,0 km/h (0 Bft) 0,00 %
23.07.2015 21:50 23,9 C 68 % 1011,2 hPa 0,0 l/m 0,0 km/h (0 Bft) N-NO 14 0 min 0,000 mm 0,0 UV-I 0 W/m 17,6 C 23,9 C 0,0 km/h (0 Bft) 0,00 %
23.07.2015 21:55 23,8 C 68 % 1011,1 hPa 0,0 l/m 0,0 km/h (0 Bft) NO 36 0 min 0,000 mm 0,0 UV-I 0 W/m 17,5 C 23,8 C 0,0 km/h (0 Bft) 0,00 %
23.07.2015 22:00 23,7 C 69 % 1011,1 hPa 0,0 l/m 0,0 km/h (0 Bft) NO 50 0 min 0,000 mm 0,0 UV-I 0 W/m 17,7 C 23,7 C 0,0 km/h (0 Bft) 0,00 %
23.07.2015 22:05 23,5 C 70 % 1011,5 hPa 0,0 l/m 0,7 km/h (0 Bft) NW 311 0 min 0,000 mm 0,0 UV-I 0 W/m 17,7 C 23,5 C 4,0 km/h (1 Bft) 0,00 %
23.07.2015 22:10 23,3 C 70 % 1011,5 hPa 0,0 l/m 1,8 km/h (1 Bft) NW 308 0 min 0,000 mm 0,0 UV-I 0 W/m 17,5 C 23,3 C 4,0 km/h (1 Bft) 0,00 %
23.07.2015 22:15 23,2 C 70 % 1011,3 hPa 0,0 l/m 0,0 km/h (0 Bft) S-SW 203 0 min 0,000 mm 0,0 UV-I 0 W/m 17,4 C 23,2 C 0,0 km/h (0 Bft) 0,00 %
23.07.2015 22:20 23,1 C 70 % 1011,4 hPa 0,0 l/m 0,0 km/h (0 Bft) NO 44 0 min 0,000 mm 0,0 UV-I 0 W/m 17,3 C 23,1 C 0,0 km/h (0 Bft) 0,00 %
23.07.2015 22:25 22,9 C 72 % 1011,4 hPa 0,0 l/m 0,0 km/h (0 Bft) O-NO 72 0 min 0,000 mm 0,0 UV-I 0 W/m 17,6 C 22,9 C 0,0 km/h (0 Bft) 0,00 %
23.07.2015 22:30 22,8 C 72 % 1011,5 hPa 0,0 l/m 0,0 km/h (0 Bft) NO 47 0 min 0,000 mm 0,0 UV-I 0 W/m 17,5 C 22,8 C 0,0 km/h (0 Bft) 0,00 %
23.07.2015 22:35 22,7 C 72 % 1011,2 hPa 0,0 l/m 0,0 km/h (0 Bft) NO 41 0 min 0,000 mm 0,0 UV-I 0 W/m 17,4 C 22,7 C 0,0 km/h (0 Bft) 0,00 %
23.07.2015 22:40 22,6 C 73 % 1011,4 hPa 0,0 l/m 0,0 km/h (0 Bft) NO 40 0 min 0,000 mm 0,0 UV-I 0 W/m 17,5 C 22,6 C 0,0 km/h (0 Bft) 0,00 %
23.07.2015 22:45 22,5 C 72 % 1011,5 hPa 0,0 l/m 0,4 km/h (0 Bft) NW 323 0 min 0,000 mm 0,0 UV-I 0 W/m 17,2 C 22,5 C 4,0 km/h (1 Bft) 0,00 %
23.07.2015 22:50 22,4 C 73 % 1011,4 hPa 0,0 l/m 0,0 km/h (0 Bft) NO 36 0 min 0,000 mm 0,0 UV-I 0 W/m 17,3 C 22,4 C 0,0 km/h (0 Bft) 0,00 %
23.07.2015 22:55 22,4 C 73 % 1011,6 hPa 0,0 l/m 0,0 km/h (0 Bft) NO 44 0 min 0,000 mm 0,0 UV-I 0 W/m 17,3 C 22,4 C 0,0 km/h (0 Bft) 0,00 %
23.07.2015 23:00 22,4 C 72 % 1011,5 hPa 0,0 l/m 0,0 km/h (0 Bft) SW 226 0 min 0,000 mm 0,0 UV-I 0 W/m 17,1 C 22,4 C 0,0 km/h (0 Bft) 0,00 %
23.07.2015 23:05 22,4 C 72 % 1011,5 hPa 0,0 l/m 0,4 km/h (0 Bft) W-SW 256 0 min 0,000 mm 0,0 UV-I 0 W/m 17,1 C 22,4 C 4,0 km/h (1 Bft) 0,00 %
23.07.2015 23:10 22,4 C 72 % 1011,6 hPa 0,0 l/m 0,0 km/h (0 Bft) NO 38 0 min 0,000 mm 0,0 UV-I 0 W/m 17,1 C 22,4 C 0,0 km/h (0 Bft) 0,00 %
23.07.2015 23:15 22,4 C 72 % 1011,3 hPa 0,0 l/m 0,4 km/h (0 Bft) NW 325 0 min 0,000 mm 0,0 UV-I 0 W/m 17,1 C 22,4 C 4,0 km/h (1 Bft) 0,00 %
23.07.2015 23:20 22,4 C 72 % 1011,4 hPa 0,0 l/m 3,2 km/h (1 Bft) W-SW 257 0 min 0,000 mm 0,0 UV-I 0 W/m 17,1 C 22,4 C 4,0 km/h (1 Bft) 0,00 %
23.07.2015 23:25 22,4 C 72 % 1011,6 hPa 0,0 l/m 0,0 km/h (0 Bft) N-NW 344 0 min 0,000 mm 0,0 UV-I 0 W/m 17,1 C 22,4 C 0,0 km/h (0 Bft) 0,00 %
23.07.2015 23:30 22,3 C 72 % 1011,4 hPa 0,0 l/m 0,0 km/h (0 Bft) NO 43 0 min 0,000 mm 0,0 UV-I 0 W/m 17,0 C 22,3 C 0,0 km/h (0 Bft) 0,00 %
23.07.2015 23:35 22,2 C 72 % 1011,4 hPa 0,0 l/m 0,0 km/h (0 Bft) NO 36 0 min 0,000 mm 0,0 UV-I 0 W/m 16,9 C 22,2 C 0,0 km/h (0 Bft) 0,00 %
23.07.2015 23:40 22,1 C 72 % 1011,5 hPa 0,0 l/m 0,0 km/h (0 Bft) W-SW 246 0 min 0,000 mm 0,0 UV-I 0 W/m 16,8 C 22,1 C 0,0 km/h (0 Bft) 0,00 %
23.07.2015 23:45 22,1 C 72 % 1011,5 hPa 0,0 l/m 0,0 km/h (0 Bft) NO 49 0 min 0,000 mm 0,0 UV-I 0 W/m 16,8 C 22,1 C 0,0 km/h (0 Bft) 0,00 %
23.07.2015 23:50 22,1 C 72 % 1011,6 hPa 0,0 l/m 0,0 km/h (0 Bft) O-NO 69 0 min 0,000 mm 0,0 UV-I 0 W/m 16,8 C 22,1 C 0,0 km/h (0 Bft) 0,00 %
23.07.2015 23:55 22,1 C 72 % 1011,3 hPa 0,0 l/m 0,0 km/h (0 Bft) N-NO 30 0 min 0,000 mm 0,0 UV-I 0 W/m 16,8 C 22,1 C 0,0 km/h (0 Bft) 0,00 %
_ Min-Zeit 05:15 16:00 19:15 - 01:00 - - - - - - 16:45 05:50 01:00 00:00
Minimum _ 19,7 C 39 % 1008,6 hPa - 0,0 km/h (0 Bft) - - - - - - 15,0 C 19,6 C 0,0 km/h (0 Bft) 0,00 %
_ Max-Zeit 14:25 05:00 22:55 00:00 12:30 - - 06:15 00:00 12:15 13:00 00:00 14:25 12:30 00:00
Maximum _ 30,9 C 80 % 1011,6 hPa 0,0 l/m 14,0 km/h
W (3 Bft)
- - 5 min 0,000 mm 5,0 UV-I 1024 W/m 18,3 C 30,9 C 19,8 km/h
W (3 Bft)
0,00 %
Durchschnitt _ 25,5 C 59 % 1010,3 hPa #0,0 l/m 1,8 km/h (1 Bft) W-SW - #11:30 h #0,000 mm 2,5 UV-I 553 W/m 16,6 C 25,5 C 3,6 km/h (1 Bft) 0,00 %